Location: Cactus School
(34.5700°N, 118.0931°W)
Time: 19:46:25
(UTC-08:00)

Vanguard 1 - Visible Passes

Search period start: 19 November 2019 00:00
Search period end: 29 November 2019 00:00
Orbit: 652 x 3831 km, 34.2° (Epoch: 18 November)

Date Brightness Start Highest point End Pass type
(mag) Time Alt. Az. Time Alt. Az. Time Alt. Az.
22 Nov 14.4 04:53:36 10° S 05:03:15 16° SE 05:10:58 10° ESE visible
23 Nov 14.1 05:11:15 10° S 05:24:45 22° SSE 05:34:32 10° ESE visible
24 Nov 13.8 05:30:13 10° SSW 05:46:12 30° SSE 05:56:55 10° E visible
25 Nov 14.5 03:35:11 10° SSE 03:42:55 13° SE 03:49:43 10° ESE visible
25 Nov 13.5 05:49:57 10° SSW 06:07:36 38° SSE 06:18:43 10° E visible
26 Nov 14.2 03:51:10 10° S 04:04:25 19° SE 04:15:02 10° ESE visible
26 Nov 13.2 06:10:14 10° SW 06:28:58 46° SSE 06:40:11 10° E visible
27 Nov 14.0 04:09:22 10° S 04:25:49 26° SE 04:38:09 10° E visible
28 Nov 13.7 04:28:34 10° SSW 04:47:13 34° SE 05:00:24 10° E visible
